Time,TemperatureF,DewpointF,PressureIn,WindDirection,WindDirectionDegrees,WindSpeedMPH,WindSpeedGustMPH,Humidity,HourlyPrecipIn,Conditions,Clouds,dailyrainin,SolarRadiationWatts/m^2,SoftwareType,DateUTC
2013-06-29 00:00:00,74.8,60.9,29.71,WSW,258,0.0,1.0,62,0.00,RA,,0.00,0.0,WeatherDisplay:10.37,2013-06-29 05:00:00,
2013-06-29 00:10:00,73.6,61.6,29.70,SW,214,0.0,1.0,66,0.00,FEW,,0.00,0.0,WeatherDisplay:10.37,2013-06-29 05:10:00,
2013-06-29 00:20:00,72.9,60.8,29.70,SW,214,0.0,1.0,66,0.00,FEW,,0.00,0.0,WeatherDisplay:10.37,2013-06-29 05:20:00,
2013-06-29 00:30:00,72.9,60.4,29.70,SW,214,0.0,1.0,65,0.00,BKN,,0.00,0.0,WeatherDisplay:10.37,2013-06-29 05:30:00,
2013-06-29 00:40:00,72.7,60.3,29.70,SW,214,0.0,0.0,65,0.00,BKN,,0.00,0.0,WeatherDisplay:10.37,2013-06-29 05:40:00,
2013-06-29 00:50:00,73.1,60.6,29.69,SW,215,0.0,1.0,65,0.00,BKN,,0.00,0.0,WeatherDisplay:10.37,2013-06-29 05:50:00,
2013-06-29 01:00:00,73.1,60.6,29.69,WSW,240,0.0,1.0,65,0.00,BKN,,0.00,0.0,WeatherDisplay:10.37,2013-06-29 06:00:00,
2013-06-29 01:10:00,73.0,60.5,29.69,WSW,240,0.0,0.0,65,0.00,FEW,,0.00,0.0,WeatherDisplay:10.37,2013-06-29 06:10:00,
2013-06-29 01:20:00,72.6,60.6,29.69,WSW,240,0.0,1.0,66,0.00,FEW,,0.00,0.0,WeatherDisplay:10.37,2013-06-29 06:20:00,
2013-06-29 01:30:00,72.5,60.5,29.69,WSW,238,1.0,2.0,66,0.00,CLR,,0.00,0.0,WeatherDisplay:10.37,2013-06-29 06:30:00,
2013-06-29 01:40:00,72.5,60.1,29.68,WSW,238,0.0,1.0,65,0.00,CLR,,0.00,0.0,WeatherDisplay:10.37,2013-06-29 06:40:00,
2013-06-29 01:50:00,72.5,60.1,29.68,WSW,248,0.0,2.0,65,0.00,CLR,,0.00,0.0,WeatherDisplay:10.37,2013-06-29 06:50:00,
2013-06-29 02:00:00,72.4,60.0,29.67,WSW,248,1.0,1.0,65,0.00,CLR,,0.00,0.0,WeatherDisplay:10.37,2013-06-29 07:00:00,
2013-06-29 02:10:00,72.2,60.2,29.67,WSW,241,0.0,2.0,66,0.00,CLR,,0.00,0.0,WeatherDisplay:10.37,2013-06-29 07:10:00,
2013-06-29 02:20:00,72.0,60.0,29.67,WSW,247,0.0,1.0,66,0.00,CLR,,0.00,0.0,WeatherDisplay:10.37,2013-06-29 07:20:00,
2013-06-29 02:30:00,71.7,59.7,29.67,WSW,253,0.0,1.0,66,0.00,CLR,,0.00,0.0,WeatherDisplay:10.37,2013-06-29 07:30:00,
2013-06-29 02:40:00,72.1,60.1,29.67,WSW,251,1.0,2.0,66,0.00,CLR,,0.00,0.0,WeatherDisplay:10.37,2013-06-29 07:40:00,
2013-06-29 02:50:00,71.8,60.2,29.66,WSW,255,1.0,2.0,67,0.00,CLR,,0.00,0.0,WeatherDisplay:10.37,2013-06-29 07:50:00,
2013-06-29 03:00:00,71.8,60.7,29.66,WSW,254,1.0,3.0,68,0.00,CLR,,0.00,0.0,WeatherDisplay:10.37,2013-06-29 08:00:00,
2013-06-29 03:10:00,71.7,61.4,29.66,WSW,252,1.0,2.0,70,0.00,CLR,,0.00,0.0,WeatherDisplay:10.37,2013-06-29 08:10:00,
2013-06-29 03:20:00,71.6,61.7,29.66,WSW,249,1.0,2.0,71,0.00,CLR,,0.00,0.0,WeatherDisplay:10.37,2013-06-29 08:20:00,
2013-06-29 03:30:00,71.5,62.0,29.66,West,259,0.0,3.0,72,0.00,CLR,,0.00,0.0,WeatherDisplay:10.37,2013-06-29 08:30:00,
2013-06-29 03:40:00,71.3,62.2,29.66,WSW,255,1.0,2.0,73,0.00,CLR,,0.00,0.0,WeatherDisplay:10.37,2013-06-29 08:40:00,
2013-06-29 03:50:00,71.2,62.1,29.66,WSW,251,0.0,2.0,73,0.00,CLR,,0.00,0.0,WeatherDisplay:10.37,2013-06-29 08:50:00,
2013-06-29 04:00:00,71.0,61.9,29.66,WSW,253,0.0,2.0,73,0.00,CLR,,0.00,0.0,WeatherDisplay:10.37,2013-06-29 09:00:00,
2013-06-29 04:10:00,71.0,61.9,29.66,West,262,1.0,2.0,73,0.00,CLR,,0.00,0.0,WeatherDisplay:10.37,2013-06-29 09:10:00,
2013-06-29 04:20:00,71.1,62.0,29.66,West,259,1.0,3.0,73,0.00,CLR,,0.00,0.0,WeatherDisplay:10.37,2013-06-29 09:20:00,
2013-06-29 04:30:00,71.1,62.0,29.66,WSW,253,1.0,3.0,73,0.00,CLR,,0.00,0.0,WeatherDisplay:10.37,2013-06-29 09:30:00,
2013-06-29 04:40:00,71.1,62.0,29.66,WSW,251,1.0,3.0,73,0.00,CLR,,0.00,0.0,WeatherDisplay:10.37,2013-06-29 09:40:00,
2013-06-29 04:50:00,70.9,61.8,29.66,WSW,258,1.0,3.0,73,0.00,CLR,,0.00,0.0,WeatherDisplay:10.37,2013-06-29 09:50:00,
2013-06-29 05:00:00,70.8,62.1,29.66,WSW,254,1.0,3.0,74,0.00,CLR,,0.00,0.0,WeatherDisplay:10.37,2013-06-29 10:00:00,
2013-06-29 05:10:00,70.7,62.0,29.66,WSW,257,1.0,3.0,74,0.00,CLR,,0.00,0.0,WeatherDisplay:10.37,2013-06-29 10:10:00,
2013-06-29 05:20:00,70.5,61.8,29.66,WSW,252,1.0,2.0,74,0.00,CLR,,0.00,0.0,WeatherDisplay:10.37,2013-06-29 10:20:00,
2013-06-29 05:30:00,70.3,62.0,29.66,WSW,253,1.0,3.0,75,0.00,CLR,,0.00,0.0,WeatherDisplay:10.37,2013-06-29 10:30:00,
2013-06-29 05:40:00,69.9,61.6,29.66,West,259,0.0,1.0,75,0.00,CLR,,0.00,0.0,WeatherDisplay:10.37,2013-06-29 10:40:00,
2013-06-29 05:50:00,70.0,62.1,29.67,WNW,291,0.0,2.0,76,0.00,CLR,,0.00,0.0,WeatherDisplay:10.37,2013-06-29 10:50:00,
2013-06-29 06:00:00,70.7,62.4,29.67,NW,306,2.0,6.0,75,0.00,CLR,,0.00,0.0,WeatherDisplay:10.37,2013-06-29 11:00:00,
2013-06-29 06:10:00,71.1,62.4,29.67,NW,307,2.0,5.0,74,0.00,CLR,,0.00,0.0,WeatherDisplay:10.37,2013-06-29 11:10:00,
2013-06-29 06:20:00,71.0,62.3,29.67,WNW,287,1.0,4.0,74,0.00,CLR,,0.00,0.0,WeatherDisplay:10.37,2013-06-29 11:20:00,
2013-06-29 06:30:00,71.5,62.8,29.67,WNW,298,1.0,4.0,74,0.00,CLR,,0.00,0.0,WeatherDisplay:10.37,2013-06-29 11:30:00,
2013-06-29 06:40:00,71.9,62.8,29.67,WNW,282,1.0,3.0,73,0.00,CLR,,0.00,0.0,WeatherDisplay:10.37,2013-06-29 11:40:00,
2013-06-29 06:50:00,72.6,63.1,29.67,West,264,2.0,4.0,72,0.00,CLR,,0.00,0.0,WeatherDisplay:10.37,2013-06-29 11:50:00,
2013-06-29 07:00:00,73.8,63.0,29.67,WNW,302,2.0,6.0,69,0.00,CLR,,0.00,0.0,WeatherDisplay:10.37,2013-06-29 12:00:00,
2013-06-29 07:10:00,74.6,62.9,29.67,WNW,303,3.0,8.0,67,0.00,CLR,,0.00,0.0,WeatherDisplay:10.37,2013-06-29 12:10:00,
2013-06-29 07:20:00,74.9,62.7,29.67,NW,313,1.0,6.0,66,0.00,FEW,,0.00,0.0,WeatherDisplay:10.37,2013-06-29 12:20:00,
2013-06-29 07:30:00,75.3,62.7,29.67,WNW,300,2.0,6.0,65,0.00,FEW,,0.00,0.0,WeatherDisplay:10.37,2013-06-29 12:30:00,
2013-06-29 07:40:00,75.5,62.5,29.67,WNW,302,5.0,7.0,64,0.00,FEW,,0.00,0.0,WeatherDisplay:10.37,2013-06-29 12:40:00,
2013-06-29 07:50:00,75.9,62.8,29.67,WNW,302,3.0,7.0,64,0.00,FEW,,0.00,0.0,WeatherDisplay:10.37,2013-06-29 12:50:00,
2013-06-29 08:00:00,76.4,63.3,29.67,WNW,300,3.0,7.0,64,0.00,FEW,,0.00,0.0,WeatherDisplay:10.37,2013-06-29 13:00:00,
2013-06-29 08:10:00,76.5,62.5,29.67,NW,321,6.0,10.0,62,0.00,FEW,,0.00,0.0,WeatherDisplay:10.37,2013-06-29 13:10:00,
2013-06-29 08:20:00,76.7,62.7,29.67,NW,306,5.0,10.0,62,0.00,FEW,,0.00,0.0,WeatherDisplay:10.37,2013-06-29 13:20:00,
2013-06-29 08:30:00,77.1,62.6,29.67,NNW,327,5.0,14.0,61,0.00,FEW,,0.00,0.0,WeatherDisplay:10.37,2013-06-29 13:30:00,
2013-06-29 08:40:00,78.0,62.5,29.67,NW,320,7.0,12.0,59,0.00,CLR,,0.00,0.0,WeatherDisplay:10.37,2013-06-29 13:40:00,
2013-06-29 08:50:00,78.1,62.6,29.67,NNW,334,5.0,12.0,59,0.00,CLR,,0.00,0.0,WeatherDisplay:10.37,2013-06-29 13:50:00,
2013-06-29 09:00:00,78.9,62.9,29.67,NW,309,5.0,8.0,58,0.00,FEW,,0.00,0.0,WeatherDisplay:10.37,2013-06-29 14:00:00,
2013-06-29 09:10:00,79.5,62.9,29.67,NW,313,6.0,9.0,57,0.00,FEW,,0.00,0.0,WeatherDisplay:10.37,2013-06-29 14:10:00,
2013-06-29 09:20:00,79.9,63.3,29.67,NNW,331,3.0,12.0,57,0.00,FEW,,0.00,0.0,WeatherDisplay:10.37,2013-06-29 14:20:00,
2013-06-29 09:30:00,80.4,62.8,29.67,NW,319,6.0,12.0,55,0.00,FEW,,0.00,0.0,WeatherDisplay:10.37,2013-06-29 14:30:00,
2013-06-29 09:40:00,81.1,62.9,29.67,NW,313,6.0,9.0,54,0.00,CLR,,0.00,0.0,WeatherDisplay:10.37,2013-06-29 14:40:00,
2013-06-29 09:50:00,82.0,63.2,29.66,NW,314,6.0,10.0,53,0.00,CLR,,0.00,0.0,WeatherDisplay:10.37,2013-06-29 14:50:00,
2013-06-29 10:00:00,82.5,62.5,29.66,NNW,332,5.0,12.0,51,0.00,CLR,,0.00,0.0,WeatherDisplay:10.37,2013-06-29 15:00:00,
2013-06-29 10:10:00,82.6,61.5,29.66,NW,320,8.0,13.0,49,0.00,CLR,,0.00,0.0,WeatherDisplay:10.37,2013-06-29 15:10:00,
2013-06-29 10:20:00,82.7,62.1,29.66,NW,316,5.0,17.0,50,0.00,CLR,,0.00,0.0,WeatherDisplay:10.37,2013-06-29 15:20:00,
2013-06-29 10:30:00,82.7,62.2,29.66,NW,318,8.0,17.0,50,0.00,CLR,,0.00,0.0,WeatherDisplay:10.37,2013-06-29 15:30:00,
2013-06-29 10:40:00,83.2,62.0,29.66,NW,317,9.0,15.0,49,0.00,CLR,,0.00,0.0,WeatherDisplay:10.37,2013-06-29 15:40:00,
2013-06-29 10:50:00,83.8,62.0,29.66,NW,322,7.0,16.0,48,0.00,CLR,,0.00,0.0,WeatherDisplay:10.37,2013-06-29 15:50:00,
2013-06-29 11:00:00,83.7,62.0,29.66,NW,323,8.0,15.0,48,0.00,CLR,,0.00,0.0,WeatherDisplay:10.37,2013-06-29 16:00:00,
2013-06-29 11:10:00,84.2,61.2,29.66,NW,317,9.0,18.0,46,0.00,CLR,,0.00,0.0,WeatherDisplay:10.37,2013-06-29 16:10:00,
2013-06-29 11:20:00,85.3,60.9,29.66,WNW,300,6.0,12.0,44,0.00,CLR,,0.00,0.0,WeatherDisplay:10.37,2013-06-29 16:20:00,
2013-06-29 11:30:00,85.1,60.1,29.66,NW,309,9.0,18.0,43,0.00,CLR,,0.00,0.0,WeatherDisplay:10.37,2013-06-29 16:30:00,
2013-06-29 11:40:00,85.6,61.2,29.66,NW,311,8.0,16.0,44,0.00,CLR,,0.00,0.0,WeatherDisplay:10.37,2013-06-29 16:40:00,
2013-06-29 11:50:00,85.5,60.4,29.66,NW,305,7.0,15.0,43,0.00,CLR,,0.00,0.0,WeatherDisplay:10.37,2013-06-29 16:50:00,
2013-06-29 12:00:00,85.3,61.6,29.66,WNW,296,6.0,13.0,45,0.00,FEW,,0.00,0.0,WeatherDisplay:10.37,2013-06-29 17:00:00,
2013-06-29 12:10:00,85.7,61.3,29.65,WNW,297,7.0,13.0,44,0.00,FEW,,0.00,0.0,WeatherDisplay:10.37,2013-06-29 17:10:00,
2013-06-29 12:20:00,86.0,60.9,29.65,NW,304,5.0,15.0,43,0.00,FEW,,0.00,0.0,WeatherDisplay:10.37,2013-06-29 17:20:00,
2013-06-29 12:30:00,86.6,62.1,29.65,WNW,301,3.0,15.0,44,0.00,FEW,,0.00,0.0,WeatherDisplay:10.37,2013-06-29 17:30:00,
2013-06-29 12:40:00,86.7,60.9,29.65,WNW,294,3.0,12.0,42,0.00,FEW,,0.00,0.0,WeatherDisplay:10.37,2013-06-29 17:40:00,
2013-06-29 12:50:00,86.7,61.5,29.65,WSW,250,5.0,12.0,43,0.00,FEW,,0.00,0.0,WeatherDisplay:10.37,2013-06-29 17:50:00,
2013-06-29 13:00:00,87.2,61.3,29.65,WNW,292,6.0,9.0,42,0.00,BKN,,0.00,0.0,WeatherDisplay:10.37,2013-06-29 18:00:00,
2013-06-29 13:10:00,86.5,61.3,29.65,WSW,253,3.0,10.0,43,0.00,BKN,,0.00,0.0,WeatherDisplay:10.37,2013-06-29 18:10:00,
2013-06-29 13:20:00,86.7,61.5,29.65,West,274,3.0,12.0,43,0.00,BKN,,0.00,0.0,WeatherDisplay:10.37,2013-06-29 18:20:00,
2013-06-29 13:30:00,87.1,59.8,29.65,West,280,6.0,15.0,40,0.00,BKN,,0.00,0.0,WeatherDisplay:10.37,2013-06-29 18:30:00,
2013-06-29 13:40:00,86.6,60.7,29.64,NW,316,7.0,16.0,42,0.00,BKN,,0.00,0.0,WeatherDisplay:10.37,2013-06-29 18:40:00,
2013-06-29 13:50:00,87.8,61.9,29.65,WNW,303,3.0,12.0,42,0.00,BKN,,0.00,0.0,WeatherDisplay:10.37,2013-06-29 18:50:00,
2013-06-29 14:00:00,86.4,61.3,29.65,West,281,5.0,12.0,43,0.00,BKN,,0.00,0.0,WeatherDisplay:10.37,2013-06-29 19:00:00,
2013-06-29 14:10:00,87.1,63.8,29.64,WNW,298,2.0,10.0,46,0.00,BKN,,0.00,0.0,WeatherDisplay:10.37,2013-06-29 19:10:00,
2013-06-29 14:20:00,87.6,63.0,29.64,WNW,294,5.0,13.0,44,0.00,CLR,,0.00,0.0,WeatherDisplay:10.37,2013-06-29 19:20:00,
2013-06-29 14:30:00,88.0,62.1,29.64,West,276,6.0,13.0,42,0.00,CLR,,0.00,0.0,WeatherDisplay:10.37,2013-06-29 19:30:00,
2013-06-29 14:40:00,87.8,63.2,29.63,West,261,5.0,12.0,44,0.00,FEW,,0.00,0.0,WeatherDisplay:10.37,2013-06-29 19:40:00,
2013-06-29 14:50:00,88.7,62.6,29.63,WSW,246,6.0,18.0,42,0.00,FEW,,0.00,0.0,WeatherDisplay:10.37,2013-06-29 19:50:00,
2013-06-29 15:00:00,88.9,61.5,29.63,WNW,290,6.0,12.0,40,0.00,FEW,,0.00,0.0,WeatherDisplay:10.37,2013-06-29 20:00:00,
2013-06-29 15:10:00,89.7,60.7,29.63,West,275,7.0,15.0,38,0.00,FEW,,0.00,0.0,WeatherDisplay:10.37,2013-06-29 20:10:00,
2013-06-29 15:20:00,88.5,60.4,29.63,West,274,5.0,16.0,39,0.00,CLR,,0.00,0.0,WeatherDisplay:10.37,2013-06-29 20:20:00,
2013-06-29 15:30:00,89.1,62.4,29.62,WNW,284,3.0,15.0,41,0.00,CLR,,0.00,0.0,WeatherDisplay:10.37,2013-06-29 20:30:00,
2013-06-29 15:40:00,89.4,59.7,29.62,West,261,5.0,15.0,37,0.00,SCT,,0.00,0.0,WeatherDisplay:10.37,2013-06-29 20:40:00,
2013-06-29 15:50:00,89.8,61.5,29.62,West,280,5.0,12.0,39,0.00,SCT,,0.00,0.0,WeatherDisplay:10.37,2013-06-29 20:50:00,
2013-06-29 16:00:00,89.7,60.0,29.62,West,260,6.0,16.0,37,0.00,SCT,,0.00,0.0,WeatherDisplay:10.37,2013-06-29 21:00:00,
2013-06-29 16:10:00,89.3,59.6,29.61,NW,304,6.0,12.0,37,0.00,SCT,,0.00,0.0,WeatherDisplay:10.37,2013-06-29 21:10:00,
2013-06-29 16:20:00,89.1,60.2,29.61,West,281,7.0,13.0,38,0.00,SCT,,0.00,0.0,WeatherDisplay:10.37,2013-06-29 21:20:00,
2013-06-29 16:30:00,89.2,61.0,29.61,West,262,6.0,12.0,39,0.00,SCT,,0.00,0.0,WeatherDisplay:10.37,2013-06-29 21:30:00,
2013-06-29 16:40:00,88.5,60.4,29.61,West,278,6.0,12.0,39,0.00,SCT,,0.00,0.0,WeatherDisplay:10.37,2013-06-29 21:40:00,
2013-06-29 16:50:00,87.9,60.6,29.61,West,274,5.0,9.0,40,0.00,SCT,,0.00,0.0,WeatherDisplay:10.37,2013-06-29 21:50:00,
2013-06-29 17:00:00,89.0,62.3,29.60,West,272,2.0,10.0,41,0.00,BKN,,0.00,0.0,WeatherDisplay:10.37,2013-06-29 22:00:00,
2013-06-29 17:10:00,88.8,61.4,29.60,West,278,5.0,12.0,40,0.00,BKN,,0.00,0.0,WeatherDisplay:10.37,2013-06-29 22:10:00,
2013-06-29 17:20:00,88.9,60.8,29.60,West,260,7.0,12.0,39,0.00,SCT,,0.00,0.0,WeatherDisplay:10.37,2013-06-29 22:20:00,
2013-06-29 17:30:00,88.6,61.2,29.60,West,265,5.0,12.0,40,0.00,SCT,,0.00,0.0,WeatherDisplay:10.37,2013-06-29 22:30:00,
2013-06-29 17:40:00,88.2,60.8,29.60,WSW,253,5.0,12.0,40,0.00,CLR,,0.00,0.0,WeatherDisplay:10.37,2013-06-29 22:40:00,
2013-06-29 17:50:00,88.5,61.1,29.60,WNW,283,3.0,9.0,40,0.00,CLR,,0.00,0.0,WeatherDisplay:10.37,2013-06-29 22:50:00,
2013-06-29 18:00:00,88.1,60.0,29.60,WNW,284,7.0,10.0,39,0.00,FEW,,0.00,0.0,WeatherDisplay:10.37,2013-06-29 23:00:00,
2013-06-29 18:10:00,88.2,60.1,29.60,WNW,300,7.0,9.0,39,0.00,FEW,,0.00,0.0,WeatherDisplay:10.37,2013-06-29 23:10:00,
2013-06-29 18:20:00,87.7,60.3,29.60,West,271,3.0,10.0,40,0.00,FEW,,0.00,0.0,WeatherDisplay:10.37,2013-06-29 23:20:00,
2013-06-29 18:30:00,87.7,59.7,29.60,West,279,3.0,10.0,39,0.00,FEW,,0.00,0.0,WeatherDisplay:10.37,2013-06-29 23:30:00,
2013-06-29 18:40:00,87.3,60.0,29.60,West,272,5.0,10.0,40,0.00,CLR,,0.00,0.0,WeatherDisplay:10.37,2013-06-29 23:40:00,
2013-06-29 18:50:00,86.9,59.7,29.61,West,274,5.0,10.0,40,0.00,CLR,,0.00,0.0,WeatherDisplay:10.37,2013-06-29 23:50:00,
2013-06-29 19:00:00,86.5,60.0,29.61,West,267,5.0,12.0,41,0.00,CLR,,0.00,0.0,WeatherDisplay:10.37,2013-06-30 00:00:00,
2013-06-29 19:10:00,85.9,59.5,29.61,WNW,286,6.0,13.0,41,0.00,CLR,,0.00,0.0,WeatherDisplay:10.37,2013-06-30 00:10:00,
2013-06-29 19:20:00,84.5,58.9,29.61,West,275,5.0,12.0,42,0.00,CLR,,0.00,0.0,WeatherDisplay:10.37,2013-06-30 00:20:00,
2013-06-29 19:30:00,83.8,59.5,29.61,WNW,293,3.0,9.0,44,0.00,CLR,,0.00,0.0,WeatherDisplay:10.37,2013-06-30 00:30:00,
2013-06-29 19:40:00,83.0,58.9,29.62,WNW,296,5.0,8.0,44,0.00,CLR,,0.00,0.0,WeatherDisplay:10.37,2013-06-30 00:40:00,
2013-06-29 19:50:00,82.7,58.6,29.62,NW,305,3.0,7.0,44,0.00,CLR,,0.00,0.0,WeatherDisplay:10.37,2013-06-30 00:50:00,
2013-06-29 20:00:00,79.0,59.8,29.65,NNW,336,15.0,30.0,52,0.00,CLR,,0.00,0.0,WeatherDisplay:10.37,2013-06-30 01:00:00,
2013-06-29 20:10:00,76.6,59.7,29.65,NNW,343,9.0,24.0,56,0.00,CLR,,0.00,0.0,WeatherDisplay:10.37,2013-06-30 01:10:00,
2013-06-29 20:20:00,75.6,59.8,29.65,NNW,339,7.0,18.0,58,0.00,CLR,,0.00,0.0,WeatherDisplay:10.37,2013-06-30 01:20:00,
2013-06-29 20:30:00,74.5,59.2,29.66,North,353,12.0,20.0,59,0.00,CLR,,0.00,0.0,WeatherDisplay:10.37,2013-06-30 01:30:00,
2013-06-29 20:40:00,73.8,59.1,29.66,North,360,10.0,16.0,60,0.00,CLR,,0.00,0.0,WeatherDisplay:10.37,2013-06-30 01:40:00,
2013-06-29 20:50:00,73.0,59.2,29.66,North,11,7.0,13.0,62,0.00,CLR,,0.00,0.0,WeatherDisplay:10.37,2013-06-30 01:50:00,
2013-06-29 21:00:00,72.5,59.2,29.66,NNE,23,3.0,12.0,63,0.00,FEW,,0.00,0.0,WeatherDisplay:10.37,2013-06-30 02:00:00,
2013-06-29 21:10:00,72.3,59.4,29.67,North,352,6.0,9.0,64,0.00,FEW,,0.00,0.0,WeatherDisplay:10.37,2013-06-30 02:10:00,
2013-06-29 21:20:00,72.0,59.6,29.67,North,354,6.0,13.0,65,0.00,FEW,,0.00,0.0,WeatherDisplay:10.37,2013-06-30 02:20:00,
2013-06-29 21:30:00,71.7,59.7,29.67,NNW,335,3.0,8.0,66,0.00,FEW,,0.00,0.0,WeatherDisplay:10.37,2013-06-30 02:30:00,
2013-06-29 21:40:00,71.4,59.9,29.68,North,354,2.0,5.0,67,0.00,FEW,,0.00,0.0,WeatherDisplay:10.37,2013-06-30 02:40:00,
2013-06-29 21:50:00,71.0,59.9,29.68,NE,35,5.0,7.0,68,0.00,FEW,,0.00,0.0,WeatherDisplay:10.37,2013-06-30 02:50:00,
2013-06-29 22:00:00,70.7,60.0,29.68,NNE,31,2.0,9.0,69,0.00,CLR,,0.00,0.0,WeatherDisplay:10.37,2013-06-30 03:00:00,
2013-06-29 22:10:00,70.5,59.8,29.68,NNE,20,2.0,7.0,69,0.00,CLR,,0.00,0.0,WeatherDisplay:10.37,2013-06-30 03:10:00,
2013-06-29 22:20:00,70.2,60.0,29.68,North,11,1.0,5.0,70,0.00,CLR,,0.00,0.0,WeatherDisplay:10.37,2013-06-30 03:20:00,
2013-06-29 22:30:00,70.0,59.8,29.68,NNE,13,2.0,5.0,70,0.00,CLR,,0.00,0.0,WeatherDisplay:10.37,2013-06-30 03:30:00,
2013-06-29 22:40:00,69.7,59.9,29.68,North,5,5.0,6.0,71,0.00,OVC,,0.00,0.0,WeatherDisplay:10.37,2013-06-30 03:40:00,
2013-06-29 22:50:00,69.4,59.9,29.67,NNE,28,3.0,6.0,72,0.00,OVC,,0.00,0.0,WeatherDisplay:10.37,2013-06-30 03:50:00,
2013-06-29 23:00:00,69.0,60.0,29.67,NNE,33,2.0,5.0,73,0.00,BKN,,0.00,0.0,WeatherDisplay:10.37,2013-06-30 04:00:00,
2013-06-29 23:10:00,68.8,60.2,29.67,NE,43,2.0,5.0,74,0.00,BKN,,0.00,0.0,WeatherDisplay:10.37,2013-06-30 04:10:00,
2013-06-29 23:20:00,68.5,60.3,29.66,NE,43,2.0,6.0,75,0.00,BKN,,0.00,0.0,WeatherDisplay:10.37,2013-06-30 04:20:00,
2013-06-29 23:30:00,68.3,60.4,29.66,NE,46,1.0,3.0,76,0.00,BKN,,0.00,0.0,WeatherDisplay:10.37,2013-06-30 04:30:00,
2013-06-29 23:40:00,67.7,60.2,29.67,SSW,209,0.0,2.0,77,0.00,OVC,,0.00,0.0,WeatherDisplay:10.37,2013-06-30 04:40:00,
2013-06-29 23:50:00,67.0,59.9,29.67,SSW,205,0.0,1.0,78,0.00,OVC,,0.00,0.0,WeatherDisplay:10.37,2013-06-30 04:50:00,